{"data":{"norad_id":42825,"epoch":"2026-05-25T05:29:34.861344Z","epoch_age_seconds":55172,"freshness":"FRESH","line1":"1 42825U 17042A   26145.22887571  .00002091  00000+0  92267-4 0  9994","line2":"2 42825  97.3597  51.2181 0001951  85.0644 275.0815 15.22858139491875","mean_motion":15.22858139,"eccentricity":0.0001951,"inclination_deg":97.3597,"raan_deg":51.2181,"arg_perigee_deg":85.0644,"mean_anomaly_deg":275.0815,"bstar":9.2267e-5,"rev_number":49187,"period_min":94.559037583474,"perigee_km":495.88318430425,"apogee_km":498.56595038783,"semimajor_km":6875.361567346,"source":"CELESTRAK","updated_at":"2026-05-25T13:37:55.696003Z"}}